#timestamp,LO_Frequency,Hit,StdDev 
1680930015.3,286047003.8,N
1680930035.2,286047005.4,N
1680930055.9,286047003.7,N
1680930075.7,286047001.3,N
1680930095.6,286047003.7,N
1680930115.4,286047004.1,N
1680930135.2,286047003.9,N
1680930155.1,286047000.1,N
1680930156.0,286047000.1,N
1680930175.8,286047001.7,N
1680930195.7,286047003.6,N
1680930215.5,286047005.9,N
1680930235.3,286047004.0,N
1680930255.2,286047003.9,N
1680930275.0,286047005.6,N
1680930275.9,286047005.6,N
1680930295.7,286047004.3,N
1680930315.6,286047003.9,N
1680930335.4,286047003.6,N
1680930355.3,286047003.0,N
1680930375.1,286047001.4,N
1680930376.0,286047001.4,N
1680930395.8,286047002.4,N
1680930415.7,286047002.0,N
1680930435.5,286047002.1,N
1680930455.4,286047000.6,N
1680930475.2,286047001.2,N
1680930495.0,286046998.5,N
1680930495.9,286046998.5,N
1680930515.8,286046999.5,N
1680930535.6,286046996.9,N
1680930555.4,286046999.2,N
1680930575.3,286046999.3,N
1680930595.1,286046998.8,N
1680930645.9,286046998.3,E
1680930655.8,286047001.1,N
1680930675.6,286047003.8,P
1680930695.5,286047001.5,N
1680930715.3,286047001.6,N
1680930735.1,286047002.1,N
1680930755.9,286047004.3,Y
1680930775.7,286047002.0,P
1680930795.6,286047004.4,P
1680930815.4,286047001.8,N
1680930835.2,286047001.4,N
1680930855.1,286047003.1,N
1680930856.0,286047003.1,Y
1680930875.8,286047002.0,P
1680930895.7,286047001.5,P
1680930915.5,286046999.7,N
1680930935.3,286047003.3,Y
1680930955.2,286047003.9,P
1680930975.9,286047004.7,P
1680930995.7,286047004.6,P
1680931015.6,286047007.1,Y
1680931035.4,286047002.9,P
1680931055.3,286047002.9,P
1680931075.1,286047005.8,P
1680931076.0,286047005.8,Y
1680931095.8,286047004.4,P
1680931115.7,286047002.5,P
1680931135.5,286047001.0,N
1680931155.4,286046999.0,N
1680931175.2,286046999.6,N
1680931195.0,286046997.2,N
1680931195.9,286046997.2,N
1680931215.8,286046995.7,N
1680931235.6,286046995.0,N
1680931255.4,286046996.8,N
1680931275.3,286046995.0,N
1680931295.1,286046996.3,N
1680931315.9,286046995.9,N
1680931335.7,286046996.4,N
1680931355.5,286046995.8,N
1680931375.4,286046995.9,N
1680931395.2,286046996.1,N
1680931415.0,286046995.5,N
1680931415.9,286046995.5,N
1680931435.8,286046999.1,N
1680931455.6,286046998.4,N
1680931475.5,286046999.3,N
1680931495.3,286046996.7,N
1680931515.1,286046999.0,N
1680931535.9,286046999.9,N
1680931555.7,286047002.1,N
1680931575.5,286047000.4,N
1680931595.4,286047000.8,N
1680931615.2,286047000.4,N
1680931635.0,286047001.3,N
1680931635.9,286047001.3,N
1680931655.8,286047004.4,N
1680931675.6,286047002.1,N
1680931695.5,286047000.1,N
1680931715.3,286047002.2,N
1680931735.1,286047002.6,N
1680931755.9,286047002.8,N
1680931775.7,286047001.5,N
1680931795.5,286047001.3,N
1680931815.4,286047001.4,N
1680931835.2,286047001.4,N
1680931855.1,286047003.9,N
1680931856.0,286047003.9,N
1680931875.8,286047003.0,N
1680931895.6,286047002.1,N
1680931915.5,286047002.4,N
1680931935.3,286047004.3,N
1680931955.1,286047003.4,N
1680931975.9,286047004.1,N
1680931995.7,286047000.8,N
1680932015.6,286046999.8,N
1680932035.4,286046999.9,N
1680932055.2,286047000.2,N
1680932075.1,286047001.2,N
1680932076.0,286047001.2,N
1680932095.8,286046998.6,N
1680932115.6,286047002.6,N
1680932135.5,286047004.2,N
1680932155.3,286047004.2,N
1680932175.2,286047005.6,Y
1680932195.9,286047001.8,P
1680932215.7,286047001.5,P
1680932235.6,286046998.2,P
1680932255.4,286046998.9,N
1680932275.2,286047000.9,N
1680932295.1,286047000.8,N
1680932296.0,286047000.8,N
1680932315.8,286046999.4,N
1680932335.7,286047000.2,N
1680932355.5,286047001.0,N
1680932375.3,286046998.8,N
1680932395.2,286046998.7,N
1680932415.0,286047001.0,N
1680932415.9,286047001.0,N
1680932435.8,286047000.8,N
1680932455.6,286047001.1,N
1680932475.4,286046998.8,N
1680932495.3,286046996.6,N
1680932515.1,286046997.8,N
1680932535.8,286046995.0,Y
1680932555.7,286046995.1,P
1680932575.5,286046995.9,N
1680932595.4,286046993.9,N
1680932615.2,286046994.4,N
1680932635.0,286046994.6,N
1680932635.9,286046994.6,N
1680932655.8,286046992.0,Y
1680932675.6,286046998.6,P
1680932695.5,286046999.1,N
1680932715.3,286046999.4,N
1680932735.1,286046997.6,N
1680932755.9,286046995.3,Y
1680932775.7,286046997.0,P
1680932795.5,286046999.1,N
1680932815.4,286047002.1,N
1680932835.2,286047002.5,N
1680932855.1,286047001.7,N
1680932856.0,286047001.7,N
1680932875.8,286047003.9,N
1680932895.6,286047003.1,N
1680932915.5,286047006.7,N
1680932935.3,286047008.5,Y
1680932955.1,286047007.3,P
1680932975.9,286047006.7,N
1680932995.7,286047004.9,N
1680933015.6,286047005.4,N
1680933035.4,286047005.3,N
1680933055.2,286047005.6,Y
1680933075.1,286046998.3,P
1680933076.0,286046998.3,N
1680933095.8,286047000.5,N
1680933115.7,286046999.8,N
1680933135.5,286047001.6,N
1680933155.3,286047000.0,N
1680933175.2,286046998.5,N
1680933195.9,286047001.2,N
1680933215.7,286047002.0,N
1680933235.6,286047002.4,N
1680933255.4,286047000.3,N
1680933275.2,286046998.2,N
1680933295.1,286046999.2,N
1680933296.0,286046999.2,N
1680933315.8,286046997.0,N
1680933335.7,286046997.4,N
1680933355.5,286046997.7,N
1680933375.3,286046997.9,N
1680933395.2,286046996.9,N
1680933415.0,286046996.7,N
1680933415.9,286046996.7,N
1680933435.7,286046996.5,N
1680933455.6,286046999.6,N
1680933475.4,286046998.8,N
1680933495.3,286047002.7,N
1680933515.1,286047002.5,N
1680933516.0,286047002.5,N
1680933535.8,286046999.9,N
1680933555.7,286046999.8,N
1680933575.5,286047002.2,N
1680933595.3,286047002.1,N
